Regional Weather Roundup
Issued by NWS Burlington, VT

Current Version | Previous Version | Graphics & Text | Print | Product List | Glossary Off
Versions: 1 2 3 4 5 6 7 8 9 10 11 12 13 14 15 16 17 18 19 20 21 22 23 24 25 26 27 28 29 30 31 32 33 34 35 36 37 38 39 40 41 42 43 44 45 46 47 48 49 50

559
ASUS41 KBTV 231230
RWRBTV
VERMONT REGIONAL WEATHER ROUNDUP
NATIONAL WEATHER SERVICE BURLINGTON VT
800 AM EDT TUE MAY 23 2017

NOTE: "FAIR" INDICATES FEW OR NO CLOUDS BELOW 12,000 FEET WITH NO
SIGNIFICANT WEATHER AND/OR OBSTRUCTIONS TO VISIBILITY.

* THESE REPORTS ARE NOT UNDER NWS QUALITY CONTROL AND/OR DO NOT
  REPORT WEATHER SUCH AS PRECIPITATION AND FOG.

VTZ001>019-231300-
_____VERMONT_____


CITY           SKY/WX    TMP DP  RH WIND       PRES   REMARKS
BURLINGTON     PTSUNNY   57  49  74 VRB5      29.93F
6HR MIN TEMP:  48; 6HR MAX TEMP:  57;

MONTPELIER     MOSUNNY   48  48 100 CALM      29.97S
6HR MIN TEMP:  40; 6HR MAX TEMP:  49;

MORRISVILLE    MOSUNNY   51  48  89 N3        29.93F
6HR MIN TEMP:  42; 6HR MAX TEMP:  52;

ST. JOHNSBURY*   N/A     49  48  97 MISG      29.92R
6HR MIN TEMP:  48; 6HR MAX TEMP:  50;

LYNDONVILLE*   FOG       47  47  98 CALM      29.94S VSB<1/4
6HR MIN TEMP:  46; 6HR MAX TEMP:  47;

MIDDLEBURY*    FAIR      54  48  81 S5        29.94F
6HR MIN TEMP:  45; 6HR MAX TEMP:  52;

RUTLAND*       CLOUDY    52  47  83 CALM      29.96F
6HR MIN TEMP:  45; 6HR MAX TEMP:  52; 6HR PCP:  0.01;

SPRINGFIELD    CLOUDY    51  49  92 CALM      29.95F
6HR MIN TEMP:  46; 6HR MAX TEMP:  51; 6HR PCP: TRACE;

HIGHGATE*      FAIR      55  47  73 SW7       29.92S
6HR MIN TEMP:  47; 6HR MAX TEMP:  55;

NEWPORT*       CLOUDY    51  48  89 S5        29.92F
6HR MIN TEMP:  46; 6HR MAX TEMP:  49;

BENNINGTON     CLOUDY    53  47  79 CALM      29.96F
6HR MIN TEMP:  44; 6HR MAX TEMP:  55;

ISLAND POND*     N/A     50 N/A N/A S1          N/A
GALLUP MILLS*    N/A     48 N/A N/A MISG        N/A
UNION VILLAGE*   N/A     50 N/A N/A MISG        N/A
MT. MANSFIELD*   N/A     39 N/A N/A W35         N/A  WCI  27

_____LAKE CHAMPLAIN_____


CITY           SKY/WX    TMP DP  RH WIND       PRES   REMARKS
BURTON ISLAND*   N/A     52  48  87 SW8         N/A
COLCHESTER RF*   N/A     52  46  82 S9          N/A
DIAMOND ISL*     N/A     52  46  82 W5          N/A

$$

NYZ007-026>031-035-052-083-087-231300-
_____NORTHERN NEW YORK_____


CITY           SKY/WX    TMP DP  RH WIND       PRES   REMARKS
PLATTSBURGH    SUNNY     57  46  66 VRB3      29.92F
6HR MIN TEMP:  44; 6HR MAX TEMP:  57;

SARANAC LAKE   SUNNY     50  46  86 SW8       29.92F
6HR MIN TEMP:  42; 6HR MAX TEMP:  50;

MASSENA        SUNNY     55  47  74 SW10      29.92F
6HR MIN TEMP:  47; 6HR MAX TEMP:  55;

OGDENSBURG*    FAIR      58  48  69 SW7       29.91F
6HR MIN TEMP:  46; 6HR MAX TEMP:  56;

POTSDAM*       SUNNY    -29 -35  75 W7        29.92F WCI -48
STARK FALLS*     N/A     54 N/A N/A W7          N/A
WATERTOWN      SUNNY     55  46  71 SW7       29.93F
6HR MIN TEMP:  41; 6HR MAX TEMP:  55;

FT DRUM        SUNNY     53  45  75 SE3       29.92F
6HR MIN TEMP:  44; 6HR MAX TEMP:  53;

ALBANY         CLOUDY    54  47  77 N5        29.97F
6HR MIN TEMP:  46; 6HR MAX TEMP:  56;


$$
NHZ002-005-011-231300-
_____NEW HAMPSHIRE_____


CITY           SKY/WX    TMP DP  RH WIND       PRES   REMARKS
LEBANON        CLOUDY    52  49  89 CALM      29.95S
6HR MIN TEMP:  50; 6HR MAX TEMP:  51;

KEENE          CLOUDY    52  48  87 CALM      29.96S
6HR MIN TEMP:  50; 6HR MAX TEMP:  51;

MT WASHINGTON  FOG       30  30 100 NW40        N/A  VSB 1/16WCI  13
6HR MIN TEMP:  30; 6HR MAX TEMP:  38;

PLYMOUTH       FAIR      54  50  88 CALM      29.93F
6HR MIN TEMP:  45; 6HR MAX TEMP:  52;

WHITEFIELD     PTSUNNY   53  48  83 CALM      29.92F
6HR MIN TEMP:  48; 6HR MAX TEMP:  53;


$$

_____REGIONAL QUEBEC LOCATIONS_____


CITY           SKY/WX    TMP DP  RH WIND       PRES   REMARKS
MONTREAL       MOSUNNY   55  46  71 W12       29.90R
QUEBEC CITY    PTSUNNY   54  50  87 SW12G21   29.83S
SHERBROOKE     CLOUDY    50  48  93 SW6       29.89S

_____REGIONAL ONTARIO LOCATIONS_____


CITY           SKY/WX    TMP DP  RH WIND       PRES   REMARKS
OTTAWA         MOSUNNY   54  46  76 SW10      29.90R

______KEY______
VSB  - VISIBILITY IN MILES
WCI  - WIND CHILL INDEX
HX   - HEAT INDEX
$$
NNNN




USA.gov is the U.S. government's official web portal to all federal, state and local government web resources and services.